Year,Month,Day,Hour,Minute,Value (Times are PST for temperature in C)
2009,02,21,00,00,-0.60
2009,02,21,00,01,-0.60
2009,02,21,00,02,-0.60
2009,02,21,00,03,-0.60
2009,02,21,00,04,-0.60
2009,02,21,00,05,-0.60
2009,02,21,00,06,-0.60
2009,02,21,00,07,-0.60
2009,02,21,00,08,-0.60
2009,02,21,00,09,-0.60
2009,02,21,00,10,-0.60
2009,02,21,00,11,-0.70
2009,02,21,00,12,-0.70
2009,02,21,00,13,-0.70
2009,02,21,00,14,-0.70
2009,02,21,00,15,-0.70
2009,02,21,00,16,-0.70
2009,02,21,00,17,-0.70
2009,02,21,00,18,-0.70
2009,02,21,00,19,-0.70
2009,02,21,00,20,-0.70
2009,02,21,00,21,-0.70
2009,02,21,00,22,-0.80
2009,02,21,00,23,-0.80
2009,02,21,00,24,-0.80
2009,02,21,00,25,-0.80
2009,02,21,00,26,-0.80
2009,02,21,00,27,-0.80
2009,02,21,00,28,-0.80
2009,02,21,00,29,-0.80
2009,02,21,00,30,-0.80
2009,02,21,00,31,-0.80
2009,02,21,00,32,-0.80
2009,02,21,00,33,-0.80
2009,02,21,00,34,-0.80
2009,02,21,00,35,-0.80
2009,02,21,00,36,-0.90
2009,02,21,00,37,-0.90
2009,02,21,00,38,-0.90
2009,02,21,00,39,-0.90
2009,02,21,00,40,-0.90
2009,02,21,00,41,-0.90
2009,02,21,00,42,-0.90
2009,02,21,00,43,-0.90
2009,02,21,00,44,-0.90
2009,02,21,00,45,-0.90
2009,02,21,00,46,-0.90
2009,02,21,00,47,-0.90
2009,02,21,00,48,-0.90
2009,02,21,00,49,-0.90
2009,02,21,00,50,-0.90
2009,02,21,00,51,-0.90
2009,02,21,00,52,-0.90
2009,02,21,00,53,-0.90
2009,02,21,00,54,-0.90
2009,02,21,00,55,-0.90
2009,02,21,00,56,-0.90
2009,02,21,00,57,-0.90
2009,02,21,00,58,-0.90
2009,02,21,00,59,-0.90
2009,02,21,01,00,-0.90
2009,02,21,01,01,-0.90
2009,02,21,01,02,-0.90
2009,02,21,01,03,-1.00
2009,02,21,01,04,-1.10
2009,02,21,01,05,-1.10
2009,02,21,01,06,-1.10
2009,02,21,01,07,-1.10
2009,02,21,01,08,-1.00
2009,02,21,01,09,-0.90
2009,02,21,01,10,-0.90
2009,02,21,01,11,-0.90
2009,02,21,01,12,-0.90
2009,02,21,01,13,-0.90
2009,02,21,01,14,-0.90
2009,02,21,01,15,-0.90
2009,02,21,01,16,-0.90
2009,02,21,01,17,-0.90
2009,02,21,01,18,-0.90
2009,02,21,01,19,-0.90
2009,02,21,01,20,-0.90
2009,02,21,01,21,-0.80
2009,02,21,01,22,-0.80
2009,02,21,01,23,-0.70
2009,02,21,01,24,-0.60
2009,02,21,01,25,-0.60
2009,02,21,01,26,-0.60
2009,02,21,01,27,-0.60
2009,02,21,01,28,-0.60
2009,02,21,01,29,-0.60
2009,02,21,01,30,-0.60
2009,02,21,01,31,-0.60
2009,02,21,01,32,-0.70
2009,02,21,01,33,-0.60
2009,02,21,01,34,-0.60
2009,02,21,01,35,-0.60
2009,02,21,01,36,-0.70
2009,02,21,01,37,-0.70
2009,02,21,01,38,-0.70
2009,02,21,01,39,-0.70
2009,02,21,01,40,-0.70
2009,02,21,01,41,-0.70
2009,02,21,01,42,-0.70
2009,02,21,01,43,-0.70
2009,02,21,01,44,-0.80
2009,02,21,01,45,-0.80
2009,02,21,01,46,-0.80
2009,02,21,01,47,-0.80
2009,02,21,01,48,-0.80
2009,02,21,01,49,-0.80
2009,02,21,01,50,-0.80
2009,02,21,01,51,-0.80
2009,02,21,01,52,-0.80
2009,02,21,01,53,-0.70
2009,02,21,01,54,-0.70
2009,02,21,01,55,-0.70
2009,02,21,01,56,-0.70
2009,02,21,01,57,-0.70
2009,02,21,01,58,-0.60
2009,02,21,01,59,-0.60
2009,02,21,02,00,-0.40
2009,02,21,02,01,-0.40
2009,02,21,02,02,-0.40
2009,02,21,02,03,-0.30
2009,02,21,02,04,-0.20
2009,02,21,02,05,-0.20
2009,02,21,02,06,-0.20
2009,02,21,02,07,-0.20
2009,02,21,02,08,-0.20
2009,02,21,02,09,-0.20
2009,02,21,02,10,-0.20
2009,02,21,02,11,-0.20
2009,02,21,02,12,-0.20
2009,02,21,02,13,-0.10
2009,02,21,02,14,-0.10
2009,02,21,02,15,-0.10
2009,02,21,02,16,-0.20
2009,02,21,02,17,-0.10
2009,02,21,02,18,-0.10
2009,02,21,02,19,-0.10
2009,02,21,02,20,-0.10
2009,02,21,02,21,-0.10
2009,02,21,02,22,-0.10
2009,02,21,02,23,-0.10
2009,02,21,02,24,-0.10
2009,02,21,02,25,-0.10
2009,02,21,02,26,-0.10
2009,02,21,02,27,-0.10
2009,02,21,02,28,0.00
2009,02,21,02,29,0.10
2009,02,21,02,30,0.10
2009,02,21,02,31,0.10
2009,02,21,02,32,0.10
2009,02,21,02,33,0.20
2009,02,21,02,34,0.20
2009,02,21,02,35,0.20
2009,02,21,02,36,0.20
2009,02,21,02,37,0.20
2009,02,21,02,38,0.20
2009,02,21,02,39,0.20
2009,02,21,02,40,0.10
2009,02,21,02,41,0.10
2009,02,21,02,42,0.10
2009,02,21,02,43,0.10
2009,02,21,02,44,0.10
2009,02,21,02,45,0.10
2009,02,21,02,46,0.10
2009,02,21,02,47,0.10
2009,02,21,02,48,0.10
2009,02,21,02,49,0.10
2009,02,21,02,50,0.10
2009,02,21,02,51,0.10
2009,02,21,02,52,0.10
2009,02,21,02,53,0.10
2009,02,21,02,54,0.00
2009,02,21,02,55,-0.10
2009,02,21,02,56,-0.10
2009,02,21,02,57,-0.20
2009,02,21,02,58,-0.20
2009,02,21,02,59,-0.30
2009,02,21,03,00,-0.40
2009,02,21,03,01,-0.40
2009,02,21,03,02,-0.40
2009,02,21,03,03,-0.50
2009,02,21,03,04,-0.60
2009,02,21,03,05,-0.60
2009,02,21,03,06,-0.60
2009,02,21,03,07,-0.60
2009,02,21,03,08,-0.60
2009,02,21,03,09,-0.60
2009,02,21,03,10,-0.60
2009,02,21,03,11,-0.60
2009,02,21,03,12,-0.60
2009,02,21,03,13,-0.60
2009,02,21,03,14,-0.50
2009,02,21,03,15,-0.40
2009,02,21,03,16,-0.40
2009,02,21,03,17,-0.40
2009,02,21,03,18,-0.40
2009,02,21,03,19,-0.30
2009,02,21,03,20,-0.30
2009,02,21,03,21,-0.30
2009,02,21,03,22,-0.30
2009,02,21,03,23,-0.20
2009,02,21,03,24,-0.10
2009,02,21,03,25,-0.10
2009,02,21,03,26,-0.10
2009,02,21,03,27,-0.10
2009,02,21,03,28,-0.10
2009,02,21,03,29,0.10
2009,02,21,03,30,0.10
2009,02,21,03,31,0.10
2009,02,21,03,32,0.20
2009,02,21,03,33,0.20
2009,02,21,03,34,0.30
2009,02,21,03,35,0.30
2009,02,21,03,36,0.30
2009,02,21,03,37,0.40
2009,02,21,03,38,0.40
2009,02,21,03,39,0.40
2009,02,21,03,40,0.40
2009,02,21,03,41,0.40
2009,02,21,03,42,0.30
2009,02,21,03,43,0.30
2009,02,21,03,44,0.30
2009,02,21,03,45,0.20
2009,02,21,03,46,0.20
2009,02,21,03,47,0.20
2009,02,21,03,48,0.20
2009,02,21,03,49,0.20
2009,02,21,03,50,0.10
2009,02,21,03,51,0.10
2009,02,21,03,52,0.10
2009,02,21,03,53,0.10
2009,02,21,03,54,0.10
2009,02,21,03,55,0.10
2009,02,21,03,56,0.10
2009,02,21,03,57,0.20
2009,02,21,03,58,0.20
2009,02,21,03,59,0.20
2009,02,21,04,00,0.20
2009,02,21,04,01,0.20
2009,02,21,04,02,0.20
2009,02,21,04,03,0.10
2009,02,21,04,04,0.10
2009,02,21,04,05,0.10
2009,02,21,04,06,0.10
2009,02,21,04,07,0.10
2009,02,21,04,08,0.10
2009,02,21,04,09,0.10
2009,02,21,04,10,0.10
2009,02,21,04,11,0.10
2009,02,21,04,12,0.10
2009,02,21,04,13,0.00
2009,02,21,04,14,-0.10
2009,02,21,04,15,-0.10
2009,02,21,04,16,-0.10
2009,02,21,04,17,-0.10
2009,02,21,04,18,-0.10
2009,02,21,04,19,-0.10
2009,02,21,04,20,-0.10
2009,02,21,04,21,-0.10
2009,02,21,04,22,-0.20
2009,02,21,04,23,-0.20
2009,02,21,04,24,-0.20
2009,02,21,04,25,-0.20
2009,02,21,04,26,-0.20
2009,02,21,04,27,-0.20
2009,02,21,04,28,-0.20
2009,02,21,04,29,-0.20
2009,02,21,04,30,-0.20
2009,02,21,04,31,-0.20
2009,02,21,04,32,-0.20
2009,02,21,04,33,-0.20
2009,02,21,04,34,-0.20
2009,02,21,04,35,-0.30
2009,02,21,04,36,-0.30
2009,02,21,04,37,-0.30
2009,02,21,04,38,-0.30
2009,02,21,04,39,-0.30
2009,02,21,04,40,-0.40
2009,02,21,04,41,-0.40
2009,02,21,04,42,-0.40
2009,02,21,04,43,-0.40
2009,02,21,04,44,-0.40
2009,02,21,04,45,-0.40
2009,02,21,04,46,-0.40
2009,02,21,04,47,-0.40
2009,02,21,04,48,-0.40
2009,02,21,04,49,-0.40
2009,02,21,04,50,-0.40
2009,02,21,04,51,-0.40
2009,02,21,04,52,-0.40
2009,02,21,04,53,-0.40
2009,02,21,04,54,-0.50
2009,02,21,04,55,-0.60
2009,02,21,04,56,-0.60
2009,02,21,04,57,-0.60
2009,02,21,04,58,-0.60
2009,02,21,04,59,-0.60
2009,02,21,05,00,-0.60
2009,02,21,05,01,-0.60
2009,02,21,05,02,-0.60
2009,02,21,05,03,-0.60
2009,02,21,05,04,-0.70
2009,02,21,05,05,-0.70
2009,02,21,05,06,-0.70
2009,02,21,05,07,-0.70
2009,02,21,05,08,-0.70
2009,02,21,05,09,-0.70
2009,02,21,05,10,-0.40
2009,02,21,05,11,0.20
2009,02,21,05,12,0.80
2009,02,21,05,13,1.40
2009,02,21,05,14,1.80
2009,02,21,05,15,2.10
2009,02,21,05,16,2.40
2009,02,21,05,17,2.60
2009,02,21,05,18,2.80
2009,02,21,05,19,2.90
2009,02,21,05,20,2.90
2009,02,21,05,21,2.90
2009,02,21,05,22,2.90
2009,02,21,05,23,2.90
2009,02,21,05,24,2.90
2009,02,21,05,25,2.80
2009,02,21,05,26,2.70
2009,02,21,05,27,2.60
2009,02,21,05,28,2.50
2009,02,21,05,29,2.20
2009,02,21,05,30,2.00
2009,02,21,05,31,1.80
2009,02,21,05,32,1.70
2009,02,21,05,33,1.50
2009,02,21,05,34,1.40
2009,02,21,05,35,1.30
2009,02,21,05,36,1.30
2009,02,21,05,37,1.20
2009,02,21,05,38,1.10
2009,02,21,05,39,1.00
2009,02,21,05,40,1.00
2009,02,21,05,41,0.90
2009,02,21,05,42,0.80
2009,02,21,05,43,0.80
2009,02,21,05,44,0.80
2009,02,21,05,45,0.80
2009,02,21,05,46,0.80
2009,02,21,05,47,0.70
2009,02,21,05,48,0.70
2009,02,21,05,49,0.70
2009,02,21,05,50,0.60
2009,02,21,05,51,0.60
2009,02,21,05,52,0.60
2009,02,21,05,53,0.60
2009,02,21,05,54,0.50
2009,02,21,05,55,0.50
2009,02,21,05,56,0.50
2009,02,21,05,57,0.50
2009,02,21,05,58,0.50
2009,02,21,05,59,0.50
2009,02,21,06,00,0.50
2009,02,21,06,01,0.50
2009,02,21,06,02,0.40
2009,02,21,06,03,0.40
2009,02,21,06,04,0.40
2009,02,21,06,05,0.40
2009,02,21,06,06,0.40
2009,02,21,06,07,0.30
2009,02,21,06,08,0.40
2009,02,21,06,09,0.40
2009,02,21,06,10,0.40
2009,02,21,06,11,0.40
2009,02,21,06,12,0.40
2009,02,21,06,13,0.40
2009,02,21,06,14,0.40
2009,02,21,06,15,0.40
2009,02,21,06,16,0.40
2009,02,21,06,17,0.40
2009,02,21,06,18,0.40
2009,02,21,06,19,0.40
2009,02,21,06,20,0.40
2009,02,21,06,21,0.40
2009,02,21,06,22,0.40
2009,02,21,06,23,0.40
2009,02,21,06,24,0.40
2009,02,21,06,25,0.40
2009,02,21,06,26,0.40
2009,02,21,06,27,0.30
2009,02,21,06,28,0.30
2009,02,21,06,29,0.20
2009,02,21,06,30,0.20
2009,02,21,06,31,0.10
2009,02,21,06,32,0.10
2009,02,21,06,33,0.10
2009,02,21,06,34,0.10
2009,02,21,06,35,0.00
2009,02,21,06,36,-0.10
2009,02,21,06,37,-0.10
2009,02,21,06,38,-0.10
2009,02,21,06,39,-0.10
2009,02,21,06,40,-0.10
2009,02,21,06,41,-0.10
2009,02,21,06,42,-0.20
2009,02,21,06,43,-0.20
2009,02,21,06,44,-0.20
2009,02,21,06,45,-0.20
2009,02,21,06,46,-0.20
2009,02,21,06,47,-0.20
2009,02,21,06,48,-0.20
2009,02,21,06,49,-0.30
2009,02,21,06,50,-0.30
2009,02,21,06,51,-0.30
2009,02,21,06,52,-0.30
2009,02,21,06,53,-0.30
2009,02,21,06,54,-0.30
2009,02,21,06,55,-0.30
2009,02,21,06,56,-0.30
2009,02,21,06,57,-0.30
2009,02,21,06,58,-0.40
2009,02,21,06,59,-0.40
2009,02,21,07,00,-0.40
2009,02,21,07,01,-0.40
2009,02,21,07,02,-0.40
2009,02,21,07,03,-0.50
2009,02,21,07,04,-0.60
2009,02,21,07,05,-0.50
2009,02,21,07,06,-0.30
2009,02,21,07,07,0.10
2009,02,21,07,08,0.50
2009,02,21,07,09,0.70
2009,02,21,07,10,0.90
2009,02,21,07,11,0.90
2009,02,21,07,12,1.00
2009,02,21,07,13,1.00
2009,02,21,07,14,1.00
2009,02,21,07,15,0.90
2009,02,21,07,16,0.80
2009,02,21,07,17,0.70
2009,02,21,07,18,0.60
2009,02,21,07,19,0.50
2009,02,21,07,20,0.50
2009,02,21,07,21,0.40
2009,02,21,07,22,0.40
2009,02,21,07,23,0.30
2009,02,21,07,24,0.30
2009,02,21,07,25,0.20
2009,02,21,07,26,0.20
2009,02,21,07,27,0.20
2009,02,21,07,28,0.20
2009,02,21,07,29,0.20
2009,02,21,07,30,0.20
2009,02,21,07,31,0.20
2009,02,21,07,32,0.20
2009,02,21,07,33,0.20
2009,02,21,07,34,0.30
2009,02,21,07,35,0.30
2009,02,21,07,36,0.30
2009,02,21,07,37,0.30
2009,02,21,07,38,0.30
2009,02,21,07,39,0.30
2009,02,21,07,40,0.20
2009,02,21,07,41,0.20
2009,02,21,07,42,0.20
2009,02,21,07,43,0.30
2009,02,21,07,44,0.30
2009,02,21,07,45,0.30
2009,02,21,07,46,0.30
2009,02,21,07,47,0.40
2009,02,21,07,48,0.40
2009,02,21,07,49,0.40
2009,02,21,07,50,0.40
2009,02,21,07,51,0.40
2009,02,21,07,52,0.40
2009,02,21,07,53,0.50
2009,02,21,07,54,0.50
2009,02,21,07,55,0.60
2009,02,21,07,56,0.60
2009,02,21,07,57,0.70
2009,02,21,07,58,0.80
2009,02,21,07,59,0.80
2009,02,21,08,00,0.80
2009,02,21,08,01,0.80
2009,02,21,08,02,0.90
2009,02,21,08,03,0.90
2009,02,21,08,04,1.00
2009,02,21,08,05,1.10
2009,02,21,08,06,1.20
2009,02,21,08,07,1.30
2009,02,21,08,08,1.40
2009,02,21,08,09,1.50
2009,02,21,08,10,1.60
2009,02,21,08,11,1.70
2009,02,21,08,12,1.80
2009,02,21,08,13,1.90
2009,02,21,08,14,2.00
2009,02,21,08,15,2.10
2009,02,21,08,16,2.20
2009,02,21,08,17,2.20
2009,02,21,08,18,2.30
2009,02,21,08,19,2.40
2009,02,21,08,20,2.50
2009,02,21,08,21,2.80
2009,02,21,08,22,3.10
2009,02,21,08,23,3.40
2009,02,21,08,24,3.70
2009,02,21,08,25,4.00
2009,02,21,08,26,4.30
2009,02,21,08,27,4.50
2009,02,21,08,28,4.80
2009,02,21,08,29,5.00
2009,02,21,08,30,5.20
2009,02,21,08,31,5.40
2009,02,21,08,32,5.50
2009,02,21,08,33,5.60
2009,02,21,08,34,5.70
2009,02,21,08,35,5.70
2009,02,21,08,36,5.70
2009,02,21,08,37,5.80
2009,02,21,08,38,5.80
2009,02,21,08,39,5.90
2009,02,21,08,40,5.90
2009,02,21,08,41,6.00
2009,02,21,08,42,6.00
2009,02,21,08,43,6.00
2009,02,21,08,44,6.10
2009,02,21,08,45,6.10
2009,02,21,08,46,6.20
2009,02,21,08,47,6.20
2009,02,21,08,48,6.20
2009,02,21,08,49,6.20
2009,02,21,08,50,6.20
2009,02,21,08,51,6.30
2009,02,21,08,52,6.30
2009,02,21,08,53,6.30
2009,02,21,08,54,6.30
2009,02,21,08,55,6.40
2009,02,21,08,56,6.40
2009,02,21,08,57,6.40
2009,02,21,08,58,6.40
2009,02,21,08,59,6.60
2009,02,21,09,00,6.60
2009,02,21,09,01,6.60
2009,02,21,09,02,6.60
2009,02,21,09,03,6.70
2009,02,21,09,04,6.80
2009,02,21,09,05,6.80
2009,02,21,09,06,6.90
2009,02,21,09,07,7.00
2009,02,21,09,08,7.00
2009,02,21,09,09,7.10
2009,02,21,09,10,7.10
2009,02,21,09,11,7.20
2009,02,21,09,12,7.30
2009,02,21,09,13,7.30
2009,02,21,09,14,7.30
2009,02,21,09,15,7.30
2009,02,21,09,16,7.40
2009,02,21,09,17,7.40
2009,02,21,09,18,7.50
2009,02,21,09,19,7.50
2009,02,21,09,20,7.60
2009,02,21,09,21,7.60
2009,02,21,09,22,7.70
2009,02,21,09,23,7.70
2009,02,21,09,24,7.70
2009,02,21,09,25,7.70
2009,02,21,09,26,7.80
2009,02,21,09,27,7.80
2009,02,21,09,28,7.80
2009,02,21,09,29,7.80
2009,02,21,09,30,7.80
2009,02,21,09,31,7.80
2009,02,21,09,32,7.80
2009,02,21,09,33,7.80
2009,02,21,09,34,7.70
2009,02,21,09,35,7.70
2009,02,21,09,36,7.60
2009,02,21,09,37,7.60
2009,02,21,09,38,7.50
2009,02,21,09,39,7.50
2009,02,21,09,40,7.40
2009,02,21,09,41,7.40
2009,02,21,09,42,7.40
2009,02,21,09,43,7.40
2009,02,21,09,44,7.50
2009,02,21,09,45,7.60
2009,02,21,09,46,7.60
2009,02,21,09,47,7.70
2009,02,21,09,48,7.70
2009,02,21,09,49,7.60
2009,02,21,09,50,7.60
2009,02,21,09,51,7.60
2009,02,21,09,52,7.60
2009,02,21,09,53,7.60
2009,02,21,09,54,7.60
2009,02,21,09,55,7.60
2009,02,21,09,56,7.60
2009,02,21,09,57,7.60
2009,02,21,09,58,7.70
2009,02,21,09,59,7.70
2009,02,21,10,00,7.70
2009,02,21,10,01,7.60
2009,02,21,10,02,7.60
2009,02,21,10,03,7.60
2009,02,21,10,04,7.60
2009,02,21,10,05,7.60
2009,02,21,10,06,7.60
2009,02,21,10,07,7.60
2009,02,21,10,08,7.60
2009,02,21,10,09,7.60
2009,02,21,10,10,7.60
2009,02,21,10,11,7.70
2009,02,21,10,12,7.70
2009,02,21,10,13,7.70
2009,02,21,10,14,7.70
2009,02,21,10,15,7.70
2009,02,21,10,16,7.80
2009,02,21,10,17,7.80
2009,02,21,10,18,7.80
2009,02,21,10,19,7.80
2009,02,21,10,20,7.80
2009,02,21,10,21,7.80
2009,02,21,10,22,7.90
2009,02,21,10,23,7.90
2009,02,21,10,24,8.00
2009,02,21,10,25,8.00
2009,02,21,10,26,8.10
2009,02,21,10,27,8.10
2009,02,21,10,28,8.20
2009,02,21,10,29,8.20
2009,02,21,10,30,8.30
2009,02,21,10,31,8.30
2009,02,21,10,32,8.30
2009,02,21,10,33,8.30
2009,02,21,10,34,8.40
2009,02,21,10,35,8.50
2009,02,21,10,36,8.60
2009,02,21,10,37,8.70
2009,02,21,10,38,8.70
2009,02,21,10,39,8.70
2009,02,21,10,40,8.80
2009,02,21,10,41,8.80
2009,02,21,10,42,8.80
2009,02,21,10,43,8.90
2009,02,21,10,44,8.90
2009,02,21,10,45,8.90
2009,02,21,10,46,8.90
2009,02,21,10,47,8.90
2009,02,21,10,48,9.00
2009,02,21,10,49,9.00
2009,02,21,10,50,9.10
2009,02,21,10,51,9.10
2009,02,21,10,52,9.10
2009,02,21,10,53,9.00
2009,02,21,10,54,8.90
2009,02,21,10,55,8.80
2009,02,21,10,56,8.70
2009,02,21,10,57,8.70
2009,02,21,10,58,8.70
2009,02,21,10,59,8.70
2009,02,21,11,00,8.70
2009,02,21,11,01,8.70
2009,02,21,11,02,8.70
2009,02,21,11,03,8.70
2009,02,21,11,04,8.80
2009,02,21,11,05,8.70
2009,02,21,11,06,8.70
2009,02,21,11,07,8.70
2009,02,21,11,08,8.70
2009,02,21,11,09,8.70
2009,02,21,11,10,8.70
2009,02,21,11,11,8.70
2009,02,21,11,12,8.70
2009,02,21,11,13,8.70
2009,02,21,11,14,8.70
2009,02,21,11,15,8.70
2009,02,21,11,16,8.70
2009,02,21,11,17,8.70
2009,02,21,11,18,8.70
2009,02,21,11,19,8.70
2009,02,21,11,20,8.70
2009,02,21,11,21,8.70
2009,02,21,11,22,8.70
2009,02,21,11,23,8.70
2009,02,21,11,24,8.70
2009,02,21,11,25,8.80
2009,02,21,11,26,8.80
2009,02,21,11,27,8.70
2009,02,21,11,28,8.80
2009,02,21,11,29,8.80
2009,02,21,11,30,8.90
2009,02,21,11,31,8.90
2009,02,21,11,32,9.00
2009,02,21,11,33,9.00
2009,02,21,11,34,8.90
2009,02,21,11,35,8.90
2009,02,21,11,36,9.00
2009,02,21,11,37,9.00
2009,02,21,11,38,9.00
2009,02,21,11,39,9.10
2009,02,21,11,40,9.10
2009,02,21,11,41,9.20
2009,02,21,11,42,9.20
2009,02,21,11,43,9.30
2009,02,21,11,44,9.40
2009,02,21,11,45,9.40
2009,02,21,11,46,9.40
2009,02,21,11,47,9.40
2009,02,21,11,48,9.40
2009,02,21,11,49,9.40
2009,02,21,11,50,9.50
2009,02,21,11,51,9.60
2009,02,21,11,52,9.60
2009,02,21,11,53,9.60
2009,02,21,11,54,9.60
2009,02,21,11,55,9.60
2009,02,21,11,56,9.70
2009,02,21,11,57,9.70
2009,02,21,11,58,9.70
2009,02,21,11,59,9.70
2009,02,21,12,00,9.70
2009,02,21,12,01,9.60
2009,02,21,12,02,9.60
2009,02,21,12,03,9.60
2009,02,21,12,04,9.70
2009,02,21,12,05,9.70
2009,02,21,12,06,9.70
2009,02,21,12,07,9.60
2009,02,21,12,08,9.60
2009,02,21,12,09,9.60
2009,02,21,12,10,9.60
2009,02,21,12,11,9.60
2009,02,21,12,12,9.60
2009,02,21,12,13,9.60
2009,02,21,12,14,9.60
2009,02,21,12,15,9.50
2009,02,21,12,16,9.50
2009,02,21,12,17,9.40
2009,02,21,12,18,9.40
2009,02,21,12,19,9.40
2009,02,21,12,20,9.40
2009,02,21,12,21,9.40
2009,02,21,12,22,9.50
2009,02,21,12,23,9.50
2009,02,21,12,24,9.50
2009,02,21,12,25,9.40
2009,02,21,12,26,9.40
2009,02,21,12,27,9.40
2009,02,21,12,28,9.40
2009,02,21,12,29,9.40
2009,02,21,12,30,9.40
2009,02,21,12,31,9.50
2009,02,21,12,32,9.50
2009,02,21,12,33,9.50
2009,02,21,12,34,9.50
2009,02,21,12,35,9.50
2009,02,21,12,36,9.50
2009,02,21,12,37,9.50
2009,02,21,12,38,9.50
2009,02,21,12,39,9.50
2009,02,21,12,40,9.60
2009,02,21,12,41,9.60
2009,02,21,12,42,9.60
2009,02,21,12,43,9.60
2009,02,21,12,44,9.50
2009,02,21,12,45,9.50
2009,02,21,12,46,9.50
2009,02,21,12,47,9.60
2009,02,21,12,48,9.60
2009,02,21,12,49,9.60
2009,02,21,12,50,9.60
2009,02,21,12,51,9.70
2009,02,21,12,52,9.70
2009,02,21,12,53,9.70
2009,02,21,12,54,9.70
2009,02,21,12,55,9.70
2009,02,21,12,56,9.80
2009,02,21,12,57,9.80
2009,02,21,12,58,9.80
2009,02,21,12,59,9.80
2009,02,21,13,00,9.90
2009,02,21,13,01,9.90
2009,02,21,13,02,9.80
2009,02,21,13,03,9.80
2009,02,21,13,04,9.80
2009,02,21,13,05,9.70
2009,02,21,13,06,9.70
2009,02,21,13,07,9.80
2009,02,21,13,08,9.80
2009,02,21,13,09,9.80
2009,02,21,13,10,9.80
2009,02,21,13,11,9.80
2009,02,21,13,12,9.80
2009,02,21,13,13,9.80
2009,02,21,13,14,9.80
2009,02,21,13,15,9.80
2009,02,21,13,16,9.80
2009,02,21,13,17,9.80
2009,02,21,13,18,9.80
2009,02,21,13,19,9.80
2009,02,21,13,20,9.80
2009,02,21,13,21,9.80
2009,02,21,13,22,9.80
2009,02,21,13,23,9.80
2009,02,21,13,24,9.80
2009,02,21,13,25,9.70
2009,02,21,13,26,9.70
2009,02,21,13,27,9.70
2009,02,21,13,28,9.70
2009,02,21,13,29,9.70
2009,02,21,13,30,9.70
2009,02,21,13,31,9.70
2009,02,21,13,32,9.70
2009,02,21,13,33,9.70
2009,02,21,13,34,9.70
2009,02,21,13,35,9.70
2009,02,21,13,36,9.70
2009,02,21,13,37,9.70
2009,02,21,13,38,9.70
2009,02,21,13,39,9.70
2009,02,21,13,40,9.80
2009,02,21,13,41,9.80
2009,02,21,13,42,9.80
2009,02,21,13,43,9.80
2009,02,21,13,44,9.80
2009,02,21,13,45,9.80
2009,02,21,13,46,9.80
2009,02,21,13,47,9.80
2009,02,21,13,48,9.80
2009,02,21,13,49,9.80
2009,02,21,13,50,9.80
2009,02,21,13,51,9.80
2009,02,21,13,52,9.70
2009,02,21,13,53,9.70
2009,02,21,13,54,9.70
2009,02,21,13,55,9.70
2009,02,21,13,56,9.60
2009,02,21,13,57,9.60
2009,02,21,13,58,9.60
2009,02,21,13,59,9.60
2009,02,21,14,00,9.70
2009,02,21,14,01,9.70
2009,02,21,14,02,9.70
2009,02,21,14,03,9.70
2009,02,21,14,04,9.70
2009,02,21,14,05,9.70
2009,02,21,14,06,9.70
2009,02,21,14,07,9.70
2009,02,21,14,08,9.70
2009,02,21,14,09,9.70
2009,02,21,14,10,9.70
2009,02,21,14,11,9.80
2009,02,21,14,12,9.90
2009,02,21,14,13,10.00
2009,02,21,14,14,10.10
2009,02,21,14,15,10.10
2009,02,21,14,16,10.20
2009,02,21,14,17,10.20
2009,02,21,14,18,10.20
2009,02,21,14,19,10.30
2009,02,21,14,20,10.40
2009,02,21,14,21,10.40
2009,02,21,14,22,10.60
2009,02,21,14,23,10.60
2009,02,21,14,24,10.60
2009,02,21,14,25,10.60
2009,02,21,14,26,10.70
2009,02,21,14,27,10.70
2009,02,21,14,28,10.70
2009,02,21,14,29,10.70
2009,02,21,14,30,10.80
2009,02,21,14,31,10.80
2009,02,21,14,32,10.80
2009,02,21,14,33,10.80
2009,02,21,14,34,10.80
2009,02,21,14,35,10.80
2009,02,21,14,36,10.80
2009,02,21,14,37,10.90
2009,02,21,14,38,11.00
2009,02,21,14,39,11.10
2009,02,21,14,40,11.20
2009,02,21,14,41,11.30
2009,02,21,14,42,11.30
2009,02,21,14,43,11.20
2009,02,21,14,44,11.20
2009,02,21,14,45,11.20
2009,02,21,14,46,11.20
2009,02,21,14,47,11.20
2009,02,21,14,48,11.30
2009,02,21,14,49,11.30
2009,02,21,14,50,11.30
2009,02,21,14,51,11.30
2009,02,21,14,52,11.30
2009,02,21,14,53,11.30
2009,02,21,14,54,11.40
2009,02,21,14,55,11.40
2009,02,21,14,56,11.40
2009,02,21,14,57,11.40
2009,02,21,14,58,11.40
2009,02,21,14,59,11.30
2009,02,21,15,00,11.20
2009,02,21,15,01,11.10
2009,02,21,15,02,11.10
2009,02,21,15,03,11.10
2009,02,21,15,04,11.10
2009,02,21,15,05,11.10
2009,02,21,15,06,11.10
2009,02,21,15,07,11.10
2009,02,21,15,08,11.10
2009,02,21,15,09,11.10
2009,02,21,15,10,11.10
2009,02,21,15,11,11.10
2009,02,21,15,12,11.10
2009,02,21,15,13,11.00
2009,02,21,15,14,10.90
2009,02,21,15,15,10.90
2009,02,21,15,16,10.90
2009,02,21,15,17,10.90
2009,02,21,15,18,10.90
2009,02,21,15,19,10.90
2009,02,21,15,20,10.90
2009,02,21,15,21,10.90
2009,02,21,15,22,10.90
2009,02,21,15,23,10.90
2009,02,21,15,24,10.90
2009,02,21,15,25,10.90
2009,02,21,15,26,10.90
2009,02,21,15,27,10.90
2009,02,21,15,28,10.90
2009,02,21,15,29,10.90
2009,02,21,15,30,10.80
2009,02,21,15,31,10.80
2009,02,21,15,32,10.80
2009,02,21,15,33,10.80
2009,02,21,15,34,10.70
2009,02,21,15,35,10.70
2009,02,21,15,36,10.70
2009,02,21,15,37,10.60
2009,02,21,15,38,10.60
2009,02,21,15,39,10.60
2009,02,21,15,40,10.60
2009,02,21,15,41,10.60
2009,02,21,15,42,10.60
2009,02,21,15,43,10.60
2009,02,21,15,44,10.60
2009,02,21,15,45,10.50
2009,02,21,15,46,10.40
2009,02,21,15,47,10.40
2009,02,21,15,48,10.40
2009,02,21,15,49,10.30
2009,02,21,15,50,10.30
2009,02,21,15,51,10.20
2009,02,21,15,52,10.20
2009,02,21,15,53,10.20
2009,02,21,15,54,10.20
2009,02,21,15,55,10.10
2009,02,21,15,56,10.10
2009,02,21,15,57,10.10
2009,02,21,15,58,10.10
2009,02,21,15,59,10.10
2009,02,21,16,00,10.10
2009,02,21,16,01,10.10
2009,02,21,16,02,10.00
2009,02,21,16,03,9.90
2009,02,21,16,04,9.90
2009,02,21,16,05,9.90
2009,02,21,16,06,9.90
2009,02,21,16,07,9.90
2009,02,21,16,08,9.90
2009,02,21,16,09,9.90
2009,02,21,16,10,9.90
2009,02,21,16,11,9.90
2009,02,21,16,12,9.90
2009,02,21,16,13,9.90
2009,02,21,16,14,9.90
2009,02,21,16,15,9.90
2009,02,21,16,16,9.90
2009,02,21,16,17,9.90
2009,02,21,16,18,9.90
2009,02,21,16,19,9.90
2009,02,21,16,20,9.90
2009,02,21,16,21,9.90
2009,02,21,16,22,9.90
2009,02,21,16,23,9.90
2009,02,21,16,24,9.90
2009,02,21,16,25,9.90
2009,02,21,16,26,9.90
2009,02,21,16,27,9.90
2009,02,21,16,28,9.90
2009,02,21,16,29,9.90
2009,02,21,16,30,9.80
2009,02,21,16,31,9.90
2009,02,21,16,32,9.90
2009,02,21,16,33,9.90
2009,02,21,16,34,9.90
2009,02,21,16,35,9.90
2009,02,21,16,36,9.90
2009,02,21,16,37,9.90
2009,02,21,16,38,9.80
2009,02,21,16,39,9.80
2009,02,21,16,40,9.80
2009,02,21,16,41,9.80
2009,02,21,16,42,9.80
2009,02,21,16,43,9.80
2009,02,21,16,44,9.80
2009,02,21,16,45,9.80
2009,02,21,16,46,9.80
2009,02,21,16,47,9.80
2009,02,21,16,48,9.80
2009,02,21,16,49,9.70
2009,02,21,16,50,9.70
2009,02,21,16,51,9.70
2009,02,21,16,52,9.70
2009,02,21,16,53,9.70
2009,02,21,16,54,9.70
2009,02,21,16,55,9.70
2009,02,21,16,56,9.70
2009,02,21,16,57,9.70
2009,02,21,16,58,9.60
2009,02,21,16,59,9.60
2009,02,21,17,00,9.60
2009,02,21,17,01,9.60
2009,02,21,17,02,9.60
2009,02,21,17,03,9.50
2009,02,21,17,04,9.50
2009,02,21,17,05,9.50
2009,02,21,17,06,9.50
2009,02,21,17,07,9.50
2009,02,21,17,08,9.50
2009,02,21,17,09,9.40
2009,02,21,17,10,9.40
2009,02,21,17,11,9.40
2009,02,21,17,12,9.40
2009,02,21,17,13,9.40
2009,02,21,17,14,9.40
2009,02,21,17,15,9.30
2009,02,21,17,16,9.30
2009,02,21,17,17,9.30
2009,02,21,17,18,9.30
2009,02,21,17,19,9.30
2009,02,21,17,20,9.30
2009,02,21,17,21,9.20
2009,02,21,17,22,9.20
2009,02,21,17,23,9.20
2009,02,21,17,24,9.20
2009,02,21,17,25,9.20
2009,02,21,17,26,9.20
2009,02,21,17,27,9.20
2009,02,21,17,28,9.20
2009,02,21,17,29,9.20
2009,02,21,17,30,9.20
2009,02,21,17,31,9.10
2009,02,21,17,32,9.10
2009,02,21,17,33,9.10
2009,02,21,17,34,9.10
2009,02,21,17,35,9.10
2009,02,21,17,36,9.10
2009,02,21,17,37,9.10
2009,02,21,17,38,9.10
2009,02,21,17,39,9.10
2009,02,21,17,40,9.10
2009,02,21,17,41,9.10
2009,02,21,17,42,9.10
2009,02,21,17,43,9.10
2009,02,21,17,44,9.00
2009,02,21,17,45,9.00
2009,02,21,17,46,9.00
2009,02,21,17,47,9.00
2009,02,21,17,48,9.00
2009,02,21,17,49,9.00